{"data":{"norad_id":59117,"epoch":"2026-09-22T20:57:02.306304Z","epoch_age_seconds":52988,"freshness":"FRESH","line1":"1 59117U 24043V   26265.87294336 -.00000045  00000+0  10997-5 0  9999","line2":"2 59117  97.5788  49.7893 0005007 206.1301 153.9691 15.36012063142259","mean_motion":15.36012063,"eccentricity":0.0005007,"inclination_deg":97.5788,"raan_deg":49.7893,"arg_perigee_deg":206.1301,"mean_anomaly_deg":153.9691,"bstar":1.0997e-6,"rev_number":14225,"period_min":93.749263738692,"perigee_km":454.49322849417,"apogee_km":461.33885200868,"semimajor_km":6836.0530402514,"source":"CELESTRAK","updated_at":"2026-09-23T09:00:19.176457Z"}}